EW3967 Weather Reports


Display with metric or nautical units.
time (UTC)temp
F
wind
direction
speed
MPH
gust
MPH
rain 1hr
in
rain 24hr
in
rain mn
in
humidity
%
barometer
mb
20260901050042 82 169 0.0 1.0 0.00 0.00 0.00 47 1012.9
20260901044554 82 169 0.0 3.0 0.00 0.00 0.00 46 1012.9
20260901043041 83 182 0.0 3.0 0.00 0.00 0.00 45 1012.9
20260901041541 84 172 0.0 6.0 0.00 0.00 0.00 44 1012.9
20260901040040 84 175 1.0 5.0 0.00 0.00 0.00 44 1012.9
20260901034540 84 173 2.0 4.0 0.00 0.00 0.00 44 1012.8
20260901033040 85 158 1.0 4.0 0.00 0.00 0.00 43 1012.7
20260901031542 85 173 2.0 5.0 0.00 0.00 0.00 42 1012.7
20260901030048 86 141 2.0 6.0 0.00 0.00 0.00 41 1012.6
20260901024539 86 190 1.0 5.0 0.00 0.00 0.00 41 1012.4
20260901023037 86 168 3.0 6.0 0.00 0.00 0.00 41 1012.2
20260901021537 87 216 2.0 4.0 0.00 0.00 0.00 41 1012.0
20260901020036 87 165 2.0 3.0 0.00 0.00 0.00 39 1011.7
20260901014541 88 172 1.0 3.0 0.00 0.00 0.00 38 1011.5
20260901013036 89 158 2.0 5.0 0.00 0.00 0.00 36 1011.4
20260901011535 90 158 2.0 5.0 0.00 0.00 0.00 35 1011.3
20260901010035 92 203 2.0 6.0 0.00 0.00 0.00 33 1011.2
20260901004538 93 150 2.0 6.0 0.00 0.00 0.00 32 1011.1
20260901003037 95 162 2.0 7.0 0.00 0.00 0.00 30 1011.0
20260901001533 96 161 3.0 9.0 0.00 0.00 0.00 29 1011.0
20260901000032 97 179 3.0 9.0 0.00 0.00 0.00 29 1011.0
20260831234532 97 149 7.0 12.0 0.00 0.00 0.00 28 1011.0
20260831233031 98 172 2.0 14.0 0.00 0.00 0.00 28 1010.9
20260831231530 98 153 5.0 13.0 0.00 0.00 0.00 28 1010.9
20260831230037 99 195 4.0 10.0 0.00 0.00 0.00 28 1010.9
20260831224529 99 162 4.0 15.0 0.00 0.00 0.00 28 1010.9
20260831223028 99 203 3.0 12.0 0.00 0.00 0.00 28 1011.0
20260831221534 100 211 5.0 12.0 0.00 0.00 0.00 27 1011.0
20260831220024 100 161 2.0 9.0 0.00 0.00 0.00 30 1011.1
20260831214539 99 170 4.0 12.0 0.00 0.00 0.00 29 1011.3
20260831213021 97 101 4.0 13.0 0.00 0.00 0.00 31 1011.3
20260831211523 97 148 8.0 14.0 0.00 0.00 0.00 31 1011.4
20260831210021 98 223 7.0 16.0 0.00 0.00 0.00 30 1011.6
20260831204520 99 171 9.0 16.0 0.00 0.00 0.00 31 1011.7
20260831203019 98 145 5.0 11.0 0.00 0.00 0.00 31 1011.8
20260831201527 99 165 7.0 14.0 0.00 0.00 0.00 30 1012.0
20260831200030 98 118 4.0 13.0 0.00 0.00 0.00 32 1011.9
20260831194514 99 153 5.0 13.0 0.00 0.00 0.00 32 1012.2
20260831193013 98 153 5.0 12.0 0.00 0.00 0.00 33 1012.3
20260831191512 98 186 6.0 15.0 0.00 0.00 0.00 32 1012.5
20260831190013 98 132 8.0 19.0 0.00 0.00 0.00 34 1012.6
20260831184516 99 186 9.0 13.0 0.00 0.00 0.00 32 1012.7
20260831183004 97 149 1.0 8.0 0.00 0.00 0.00 36 1013.0
20260831181504 98 179 7.0 13.0 0.00 0.00 0.00 34 1013.1
20260831180100 98 219 4.0 9.0 0.00 0.00 0.00 35 1013.2
20260831174608 96 152 4.0 13.0 0.00 0.00 0.00 38 1013.4
20260831173057 96 252 5.0 12.0 0.00 0.00 0.00 37 1013.6
20260831171554 96 165 3.0 17.0 0.00 0.00 0.00 39 1013.8
20260831170051 96 219 5.0 13.0 0.00 0.00 0.00 39 1013.9
20260831164601 95 195 4.0 12.0 0.00 0.00 0.00 40 1014.1
20260831163045 94 236 3.0 11.0 0.00 0.00 0.00 42 1014.2
20260831161540 93 238 6.0 13.0 0.00 0.00 0.00 43 1014.2
20260831160044 93 239 5.0 10.0 0.00 0.00 0.00 44 1014.2
20260831154534 92 243 4.0 15.0 0.00 0.00 0.00 47 1014.2
20260831153032 91 231 5.0 8.0 0.00 0.00 0.00 46 1014.2
20260831151524 89 215 4.0 10.0 0.00 0.00 0.00 49 1014.2
20260831150024 88 220 5.0 13.0 0.00 0.00 0.00 51 1014.3
20260831144521 87 210 4.0 9.0 0.00 0.00 0.00 52 1014.3
20260831143023 87 183 4.0 9.0 0.00 0.00 0.00 52 1014.3
20260831141511 86 234 2.0 7.0 0.00 0.00 0.00 54 1014.3
20260831140012 84 264 2.0 7.0 0.00 0.00 0.00 55 1014.3
20260831134507 82 156 2.0 4.0 0.00 0.00 0.00 56 1014.4
20260831133004 80 209 1.0 6.0 0.00 0.00 0.00 59 1014.4
20260831131503 78 160 2.0 5.0 0.00 0.00 0.00 62 1014.1
20260831130110 76 152 2.0 3.0 0.00 0.00 0.00 64 1014.0
20260831124558 75 156 0.0 2.0 0.00 0.00 0.00 64 1013.7
20260831123055 74 184 0.0 0.0 0.00 0.00 0.00 66 1013.4
20260831121554 72 184 0.0 0.0 0.00 0.00 0.00 68 1013.2
20260831120057 73 184 0.0 0.0 0.00 0.00 0.00 67 1013.0
20260831114547 74 184 0.0 0.0 0.00 0.00 0.00 64 1012.8
20260831113104 75 165 1.0 3.0 0.00 0.00 0.00 63 1012.6
20260831111541 75 167 1.0 5.0 0.00 0.00 0.00 62 1012.3
20260831110040 75 166 1.0 4.0 0.00 0.00 0.00 62 1012.3
20260831104539 75 152 1.0 4.0 0.00 0.00 0.00 61 1012.2
20260831103043 76 217 2.0 4.0 0.00 0.00 0.00 61 1012.2
20260831101536 76 169 1.0 4.0 0.00 0.00 0.00 60 1012.2
20260831100031 76 155 0.0 3.0 0.00 0.00 0.00 59 1012.0
20260831094531 77 189 0.0 4.0 0.00 0.00 0.00 58 1011.9
20260831093028 77 174 2.0 5.0 0.00 0.00 0.00 58 1011.8
20260831091526 78 158 1.0 4.0 0.00 0.00 0.00 57 1011.9
20260831090022 78 162 1.0 5.0 0.00 0.00 0.00 56 1011.7
20260831084523 79 150 0.0 4.0 0.00 0.00 0.00 55 1011.5
20260831083018 80 170 1.0 4.0 0.00 0.00 0.00 54 1011.4
20260831081520 80 191 2.0 5.0 0.00 0.00 0.00 53 1011.5
20260831080027 81 232 2.0 5.0 0.00 0.00 0.00 52 1011.4
20260831074512 81 166 2.0 6.0 0.00 0.00 0.00 51 1011.3
20260831073010 82 230 2.0 6.0 0.00 0.00 0.00 50 1011.4
20260831071507 82 165 2.0 6.0 0.00 0.00 0.00 49 1011.3
20260831070008 82 184 3.0 6.0 0.00 0.00 0.00 49 1011.4
20260831064505 83 186 2.0 7.0 0.00 0.00 0.00 48 1011.4
20260831063007 83 176 2.0 7.0 0.00 0.00 0.00 48 1011.5
20260831061503 83 164 3.0 7.0 0.00 0.00 0.00 49 1011.4